Wind_Speed
21 22 22 22 22 22 23 25 26 26 25 26 27 28 29 29 30 30 31 33 34 34 35 36 38 39 40 42 44 44 44 44 44 43 43 43 42 42 42 41 41 41 41 41
21 21 21 22 22 22 22 23 25 24 25 25 26 27 28 28 29 29 29 31 33 34 34 36 39 40 41 43 45 45 45 45 46 45 45 45 44 43 43 43 43 44 43 44
21 21 21 22 22 22 22 22 22 24 25 26 26 27 26 26 28 29 30 31 32 33 35 36 38 40 41 43 44 46 46 46 47 46 45 46 46 46 45 45 44 44 45 45
20 21 21 21 22 22 21 21 22 23 25 26 26 27 27 26 27 28 30 30 32 33 35 37 38 40 41 41 43 45 46 46 46 46 46 46 46 46 47 46 46 46 47 46
20 20 21 20 20 21 21 21 21 23 24 25 24 26 25 26 26 28 29 30 31 34 35 37 38 40 41 42 43 45 46 46 46 46 46 47 47 46 47 47 47 47 47 48
21 21 20 19 19 19 20 20 21 22 23 23 23 25 24 25 26 27 28 28 30 32 34 36 37 39 41 43 43 44 45 46 46 48 47 47 48 47 47 48 48 48 48 49
20 20 19 18 18 17 18 19 20 21 22 23 23 26 26 25 25 27 27 28 29 31 32 35 36 38 40 41 41 42 44 45 47 48 49 48 47 48 48 48 49 49 49 49
19 18 17 17 17 18 19 20 20 22 22 22 23 25 25 26 26 27 28 29 30 31 32 34 35 35 37 38 40 41 42 44 46 48 49 49 48 48 49 49 49 49 49 50
18 18 17 17 17 18 19 20 21 22 23 23 23 24 24 25 26 27 28 28 30 30 31 33 34 35 35 36 39 41 41 43 44 46 49 49 49 48 49 49 49 49 49 50
18 19 18 18 18 18 19 19 20 21 23 24 24 23 22 24 25 26 27 28 29 30 31 33 34 34 35 36 37 39 39 41 42 45 46 46 47 47 48 47 47 48 48 48
18 18 18 18 18 18 18 19 20 21 23 24 24 22 22 23 26 27 28 30 31 32 32 32 33 34 34 35 36 37 38 39 41 42 43 44 45 45 45 45 45 45 45 46
18 18 18 19 19 19 19 19 20 21 22 23 24 23 24 25 27 28 29 30 32 33 32 32 33 33 34 34 35 36 36 38 39 40 41 43 43 43 44 44 44 44 45 45
18 18 18 19 20 20 20 20 21 22 22 22 23 23 25 27 28 28 29 30 31 32 32 33 34 33 33 33 34 35 35 36 37 37 39 40 42 42 43 43 43 43 43 44
20 19 19 19 20 21 21 21 22 22 23 24 24 25 25 27 29 29 29 30 30 31 31 32 32 32 32 32 33 33 34 34 34 35 37 38 38 39 39 39 40 41 42 43
21 21 20 20 21 22 22 22 23 23 24 25 24 25 26 28 29 30 30 29 29 29 30 31 31 30 31 31 32 32 33 33 33 34 35 36 36 36 37 37 39 40 41 42
21 22 21 21 22 23 22 22 23 24 24 25 26 26 28 29 29 30 30 29 28 28 29 30 30 30 31 31 31 31 32 32 33 33 33 34 35 35 35 36 37 39 40 40
21 22 22 21 22 23 22 22 23 24 25 26 27 27 28 28 29 29 28 27 28 28 29 29 29 29 30 30 29 30 30 31 31 31 32 32 32 33 34 35 35 36 37 39
20 21 23 23 22 23 23 23 24 24 25 26 27 28 28 28 28 27 27 27 27 27 28 27 27 27 28 28 28 28 29 29 29 30 30 30 29 31 32 33 33 34 34 35
20 21 23 23 23 24 23 24 25 25 25 26 27 27 28 27 27 26 26 27 27 27 27 27 27 26 26 26 26 26 26 26 27 28 28 28 29 31 31 31 31 31 31 31
20 21 22 23 24 24 24 25 25 26 26 26 27 27 27 26 26 26 26 27 28 28 27 27 26 26 26 25 25 25 23 23 23 24 25 26 27 28 29 28 29 29 29 29
20 21 22 23 24 24 24 25 25 26 27 27 27 27 27 27 27 27 27 27 27 28 28 27 26 26 26 25 24 24 23 22 22 23 24 25 25 26 26 26 28 28 29 29
21 22 22 23 24 25 25 25 26 27 27 28 28 28 28 27 27 27 28 28 28 27 27 27 26 26 26 25 24 23 22 22 22 22 23 24 24 25 25 25 25 26 27 27
22 22 22 23 23 24 25 26 27 27 28 28 28 28 28 27 27 27 27 28 28 28 27 26 26 26 25 25 24 22 21 21 22 23 23 23 24 23 23 23 23 24 24 25
22 22 22 22 22 23 24 25 26 27 28 27 27 27 27 27 27 27 27 27 28 28 27 26 26 24 24 23 23 22 22 22 23 23 23 23 22 21 22 22 22 23 23 23
22 22 22 23 23 24 24 25 26 27 28 27 27 27 27 27 27 27 27 27 27 26 26 25 24 23 23 23 23 23 23 24 24 23 23 23 22 22 23 23 23 23 22 23
22 23 24 24 25 25 25 26 27 27 27 27 27 27 27 27 27 27 27 27 26 26 25 24 24 23 23 24 23 23 24 24 23 23 22 23 23 23 23 23 23 23 23 23
Wind_Direction
277 277 276 276 274 273 270 267 264 261 259 260 260 258 254 256 254 253 252 252 251 252 251 252 251 251 251 251 252 253 253 253 253 254 254 255 255 257 258 258 258 257 257 258
277 277 277 276 276 275 273 270 266 262 261 262 261 259 258 256 254 254 254 253 254 256 254 254 253 252 253 254 253 253 254 254 254 255 255 255 255 256 258 258 258 258 258 258
280 279 278 277 275 274 273 273 269 264 261 263 265 261 259 257 254 255 255 256 256 259 258 258 257 254 253 254 254 254 254 254 255 256 255 256 255 255 256 257 257 257 258 258
282 281 278 277 274 272 272 271 270 266 264 264 265 264 258 259 256 257 257 258 257 260 261 260 260 258 256 256 256 255 254 255 256 256 255 255 255 255 255 256 257 258 259 259
282 282 279 277 277 275 274 272 271 271 271 267 265 267 264 261 259 259 260 261 260 261 262 262 262 261 260 259 258 256 255 255 256 256 257 256 256 257 257 256 257 258 259 259
282 280 280 278 277 277 276 273 273 274 275 271 267 268 270 267 264 264 264 266 266 264 264 265 265 265 263 262 261 260 258 257 256 256 257 258 258 258 257 257 258 259 260 261
280 278 278 275 273 273 274 274 275 277 277 275 274 273 273 273 271 273 272 272 273 272 270 271 272 270 267 266 265 263 260 258 257 257 256 257 258 258 258 257 258 260 260 261
282 277 275 273 274 276 277 276 277 279 279 279 279 281 278 276 275 276 277 277 276 275 273 273 273 273 271 269 269 267 263 260 259 258 257 257 259 259 259 259 259 260 261 262
284 279 274 275 277 278 278 276 276 279 280 281 283 281 280 279 278 278 280 281 280 276 274 274 275 276 275 273 271 270 266 262 260 259 258 257 258 259 260 260 260 260 261 261
282 279 273 273 276 278 280 280 279 279 282 284 284 285 286 282 279 279 281 282 281 280 279 277 278 277 276 275 274 273 269 264 262 261 260 259 259 259 259 259 259 259 261 261
278 279 275 273 274 278 279 278 279 281 282 284 286 288 289 289 285 283 282 282 282 282 282 281 280 278 278 277 276 275 271 267 265 264 263 261 261 261 260 259 260 261 261 260
276 279 276 274 275 277 279 280 279 282 282 284 286 288 290 290 290 288 285 283 283 284 283 281 280 281 280 279 278 277 274 270 267 266 263 262 262 262 262 262 260 261 261 261
276 279 279 276 275 276 279 281 281 281 283 285 287 290 290 290 290 291 290 287 286 285 283 282 281 283 282 280 278 277 274 271 268 266 265 264 264 263 262 261 259 259 260 261
273 275 278 280 280 280 280 280 280 282 285 287 290 289 289 288 289 291 292 290 288 286 284 284 283 283 282 281 279 277 275 272 269 268 266 265 262 263 262 261 260 260 260 260
275 274 276 278 279 280 281 280 280 283 287 290 291 291 290 289 290 291 292 292 289 287 286 285 282 281 281 279 279 277 275 273 272 270 268 265 264 264 264 262 261 261 260 261
276 276 277 278 279 279 280 279 280 284 288 291 292 293 292 293 291 291 292 290 288 288 288 287 284 282 281 279 277 277 274 273 273 271 270 268 268 266 266 265 264 263 261 260
278 278 279 279 279 279 280 281 283 286 289 292 293 293 293 293 292 290 290 290 288 288 289 288 287 286 283 279 277 276 274 273 272 272 271 270 269 268 267 267 267 265 263 261
280 281 281 283 282 282 284 284 285 288 290 291 292 293 293 293 292 291 290 289 292 292 291 290 289 288 286 282 280 278 276 274 273 273 271 271 271 271 269 269 267 267 266 264
282 284 285 284 284 284 284 286 288 290 291 292 292 293 293 293 292 291 290 290 290 291 291 290 291 292 291 289 285 283 280 278 275 273 271 271 273 272 270 270 269 268 268 267
286 285 285 285 286 287 288 288 289 290 290 293 293 293 294 293 292 293 292 291 290 291 291 290 291 291 292 293 292 289 286 283 280 276 275 276 277 276 273 271 272 271 269 270
287 286 287 287 286 288 290 290 290 289 292 294 294 294 295 294 294 294 293 292 293 292 291 290 290 290 291 293 292 290 288 285 283 281 279 280 280 280 277 274 273 271 271 271
288 288 288 288 288 290 291 291 292 292 293 293 293 293 294 295 294 294 294 294 294 293 291 290 290 289 290 291 292 290 288 285 285 284 283 283 283 282 280 277 274 274 273 273
287 289 290 290 292 292 292 292 293 294 295 295 294 294 294 294 295 295 295 294 293 293 291 289 288 288 288 289 289 288 287 287 287 286 284 283 283 282 281 279 278 278 279 278
286 287 289 291 292 293 294 294 294 295 297 297 295 295 295 294 295 295 296 296 295 293 292 288 285 286 285 284 285 285 286 286 288 288 285 285 283 282 283 283 283 282 281 279
286 287 289 290 292 292 293 294 295 298 300 299 298 297 297 296 295 295 296 296 296 294 292 289 285 283 283 283 283 284 285 286 287 287 284 283 283 283 284 285 285 284 283 283
286 288 289 291 292 293 294 294 295 298 299 299 298 296 296 296 295 296 296 295 295 294 292 290 287 284 282 281 281 283 284 285 286 285 284 283 283 284 285 284 284 285 286 285
Height
5678 5677 5676 5675 5674 5674 5673 5673 5674 5675 5675 5676 5677 5679 5682 5683 5685 5686 5688 5690 5692 5693 5695 5696 5697 5699 5701 5703 5705 5708 5710 5712 5714 5716 5718 5720 5721 5723 5725 5726 5727 5729 5730 5732
5674 5672 5672 5670 5669 5669 5668 5668 5669 5669 5669 5670 5672 5674 5676 5677 5678 5680 5681 5682 5684 5685 5687 5688 5689 5690 5692 5694 5696 5698 5700 5701 5704 5705 5707 5709 5711 5713 5715 5716 5717 5719 5720 5722
5668 5668 5667 5666 5665 5664 5664 5663 5664 5664 5665 5665 5666 5669 5671 5671 5672 5672 5674 5675 5676 5677 5678 5679 5681 5682 5683 5685 5686 5687 5689 5691 5693 5694 5696 5698 5700 5702 5704 5706 5707 5709 5711 5712
5663 5663 5662 5661 5660 5660 5660 5659 5659 5659 5659 5660 5661 5662 5666 5665 5665 5666 5667 5667 5667 5668 5669 5670 5671 5671 5673 5674 5675 5676 5678 5679 5681 5683 5685 5687 5689 5691 5693 5695 5697 5698 5700 5701
5659 5658 5657 5656 5656 5656 5655 5655 5655 5654 5654 5655 5656 5656 5660 5659 5659 5659 5659 5659 5659 5660 5660 5661 5661 5661 5662 5663 5664 5665 5666 5668 5670 5672 5673 5675 5677 5679 5682 5683 5685 5686 5688 5689
5654 5653 5652 5652 5652 5651 5651 5651 5650 5650 5650 5651 5652 5651 5652 5652 5652 5652 5652 5651 5651 5651 5651 5651 5651 5651 5651 5652 5653 5654 5655 5656 5657 5659 5661 5663 5665 5668 5670 5672 5673 5675 5676 5677
5649 5648 5648 5647 5647 5647 5647 5647 5647 5646 5646 5647 5646 5646 5647 5646 5645 5644 5644 5644 5643 5643 5642 5641 5641 5640 5640 5641 5641 5642 5643 5644 5645 5647 5649 5651 5653 5655 5657 5659 5661 5663 5664 5665
5644 5644 5643 5642 5642 5642 5642 5643 5643 5642 5641 5641 5641 5640 5642 5640 5639 5638 5637 5636 5636 5635 5634 5632 5631 5630 5630 5630 5630 5630 5630 5632 5633 5634 5636 5638 5640 5642 5644 5646 5648 5650 5651 5653
5639 5640 5640 5639 5638 5638 5638 5638 5638 5637 5636 5636 5636 5636 5636 5633 5633 5632 5631 5629 5628 5627 5625 5624 5623 5622 5620 5619 5619 5618 5618 5619 5620 5621 5622 5624 5627 5629 5631 5633 5635 5636 5638 5639
5635 5635 5635 5635 5634 5634 5633 5633 5633 5632 5630 5630 5630 5630 5630 5627 5626 5625 5624 5622 5620 5619 5617 5615 5614 5613 5612 5610 5608 5607 5607 5607 5607 5608 5610 5611 5613 5616 5618 5620 5622 5623 5625 5626
5631 5631 5631 5631 5630 5629 5629 5629 5628 5627 5626 5625 5624 5627 5624 5621 5619 5618 5617 5614 5612 5611 5609 5608 5606 5604 5602 5601 5599 5597 5596 5596 5596 5596 5597 5599 5601 5603 5605 5607 5609 5611 5612 5614
5626 5626 5626 5626 5626 5625 5624 5624 5623 5623 5622 5620 5619 5623 5618 5615 5612 5610 5609 5607 5605 5603 5601 5599 5597 5595 5593 5591 5589 5588 5587 5586 5586 5585 5586 5587 5588 5590 5592 5594 5596 5598 5600 5601
5621 5621 5621 5621 5623 5621 5620 5619 5618 5617 5616 5615 5614 5617 5612 5608 5605 5603 5601 5599 5597 5595 5592 5590 5588 5586 5583 5582 5580 5579 5577 5576 5576 5576 5575 5576 5577 5578 5580 5582 5584 5586 5587 5589
5617 5617 5617 5617 5616 5615 5615 5614 5613 5612 5611 5610 5609 5608 5606 5602 5599 5596 5594 5591 5589 5586 5584 5581 5579 5577 5575 5573 5571 5569 5568 5567 5566 5566 5565 5566 5566 5567 5568 5570 5572 5574 5575 5577
5612 5612 5612 5611 5610 5610 5609 5609 5607 5606 5605 5604 5603 5601 5599 5595 5592 5589 5586 5583 5581 5578 5576 5573 5571 5568 5566 5564 5562 5560 5559 5557 5557 5556 5555 5556 5556 5557 5557 5559 5561 5562 5563 5565
5607 5607 5606 5606 5605 5604 5604 5603 5602 5601 5599 5598 5596 5594 5591 5588 5585 5582 5578 5575 5573 5570 5568 5565 5563 5560 5558 5556 5554 5552 5550 5549 5548 5547 5546 5546 5546 5547 5547 5548 5550 5551 5552 5553
5601 5601 5601 5601 5600 5599 5599 5598 5596 5595 5593 5591 5589 5588 5584 5581 5577 5574 5571 5569 5566 5563 5560 5558 5555 5552 5550 5548 5546 5544 5542 5540 5539 5538 5538 5538 5537 5538 5538 5539 5539 5540 5541 5542
5597 5596 5595 5594 5594 5593 5595 5592 5590 5589 5587 5584 5582 5579 5576 5573 5570 5567 5564 5561 5559 5556 5553 5550 5548 5545 5542 5540 5537 5535 5534 5532 5531 5530 5530 5529 5529 5529 5529 5530 5530 5531 5532 5533
5592 5591 5589 5588 5587 5587 5587 5585 5583 5582 5580 5578 5575 5572 5569 5566 5563 5561 5557 5554 5552 5549 5546 5543 5541 5538 5535 5532 5530 5528 5526 5524 5524 5523 5523 5522 5522 5521 5521 5522 5522 5523 5523 5524
5587 5586 5585 5583 5581 5580 5582 5579 5576 5576 5574 5571 5568 5565 5562 5559 5557 5555 5551 5548 5545 5542 5539 5536 5534 5532 5529 5526 5523 5521 5519 5518 5517 5516 5516 5515 5514 5514 5513 5513 5514 5514 5515 5516
5582 5580 5579 5577 5575 5574 5574 5572 5570 5570 5568 5564 5561 5558 5555 5552 5549 5547 5543 5541 5538 5535 5532 5529 5527 5525 5522 5520 5517 5516 5513 5512 5511 5510 5510 5509 5508 5507 5506 5506 5506 5506 5507 5507
5576 5575 5573 5571 5569 5571 5567 5565 5564 5563 5559 5556 5553 5551 5548 5545 5542 5539 5536 5533 5530 5527 5525 5522 5520 5518 5516 5513 5511 5510 5508 5506 5505 5504 5504 5503 5502 5501 5500 5499 5499 5499 5499 5500
5570 5570 5567 5567 5566 5563 5561 5559 5557 5555 5552 5549 5546 5543 5541 5538 5535 5532 5529 5526 5523 5520 5517 5515 5513 5511 5509 5507 5505 5504 5502 5501 5500 5498 5497 5496 5495 5494 5494 5493 5493 5493 5493 5492
5564 5563 5562 5561 5559 5557 5555 5552 5550 5548 5545 5542 5539 5536 5533 5530 5528 5525 5522 5519 5516 5513 5510 5508 5506 5504 5502 5501 5499 5498 5497 5495 5494 5492 5491 5490 5489 5489 5488 5487 5487 5486 5486 5486
5559 5557 5556 5554 5553 5551 5549 5546 5544 5541 5538 5535 5532 5529 5526 5523 5521 5518 5515 5512 5509 5506 5503 5501 5498 5497 5496 5494 5493 5492 5490 5489 5488 5486 5485 5484 5483 5483 5482 5481 5480 5480 5479 5479
5552 5551 5549 5548 5547 5545 5543 5540 5537 5534 5531 5528 5526 5523 5520 5516 5514 5511 5508 5505 5502 5499 5496 5494 5492 5490 5489 5487 5486 5485 5484 5482 5481 5480 5479 5478 5477 5477 5476 5475 5474 5473 5472 5472